Tracking 20721 objects as of 2-Jun-2020
HD Live streaming from Space Station
objects crossing your sky now

WESTFORD NEEDLES

Track WESTFORD NEEDLES now!
10-day predictions
WESTFORD NEEDLES is classified as:


NORAD ID: 628
Int'l Code: 1963-014F
Perigee: 3,620.6 km
Apogee: 3,711.5 km
Inclination: 87.3 °
Period: 166.8 minutes
Semi major axis: 10037 km
RCS: 0.4773 m2 (medium)
Launch date: May 9, 1963
Source: United States (US)
Launch site: AIR FORCE WESTERN TEST RANGE (AFWTR)
aabbcc
Your satellite tracking list
Your tracking list is empty




NASA's NSSDC Master Catalog

Two Line Element Set (TLE):
1   628U 63014F   20151.65671007  .00000003  00000-0  00000+0 0  9993
2   628  87.3351  53.1545 0045290 162.8162 197.4235  8.63363121798620
Source of the keplerian elements: AFSPC